This demonstration page uses our WeatherBlox Daily Observations layout. Learn more.

Left ArrowRight Arrow

Hourly Observations for January 14, 2015

Temp ( °F °C ) Dew Point ( °F °C ) Humidity (%) Winds ( mph kmh ) Pressure ( in mb ) Visibility ( mi km ) Precip ( " mm )
12:52 am 00:52 Cloudy 22 -5.6 8 -13.3 55 55 S 9 15 30.42 1030 10 16 0.00 0.00
1:52 am 01:52 Mostly Cloudy 21 -6.1 6 -14.4 52 52 SSW 8 13 30.41 1030 10 16 0.00 0.00
2:52 am 02:52 Mostly Cloudy 20 -6.7 6 -14.4 55 55 S 8 13 30.40 1029 10 16 0.00 0.00
3:52 am 03:52 Cloudy 22 -5.6 7 -13.9 52 52 VRB 5 7 30.37 1028 10 16 0.00 0.00
4:52 am 04:52 Cloudy 22 -5.6 8 -13.3 55 55 Calm 30.36 1028 10 16 0.00 0.00
5:52 am 05:52 Mostly Clear 21 -6.1 9 -12.8 59 59 Calm 30.35 1028 10 16 0.00 0.00
6:52 am 06:52 Clear 20 -6.7 11 -11.7 68 68 WNW 8 13 30.35 1028 10 16 0.00 0.00
7:44 am 07:44 Mostly Cloudy 18 -7.8 13 -10.6 81 81 NW 9 15 30.39 1029 10 16 0.00 0.00
7:52 am 07:52 Mostly Cloudy 19 -7.2 13 -10.6 77 77 WNW 8 13 30.35 1028 10 16 0.00 0.00
8:52 am 08:52 Cloudy 22 -5.6 17 -8.3 82 82 WNW 3 6 30.35 1028 10 16 0.00 0.00
9:52 am 09:52 Cloudy 25 -3.9 19 -7.2 78 78 WNW 5 7 30.36 1028 10 16 0.00 0.00
10:52 am 10:52 Mostly Cloudy 28 -2.2 21 -6.1 75 75 NNW 3 6 30.36 1028 10 16 0.00 0.00
10:59 am 10:59 Mostly Cloudy 28 -2.2 21 -6.1 75 75 Calm 30.39 1029 10 16 0.00 0.00
11:52 am 11:52 Mostly Cloudy 29 -1.7 21 -6.1 72 72 SSW 3 6 30.33 1027 10 16 0.00 0.00
12:20 pm 12:20 Partly Cloudy 30 -1 21 -6 69 69 SSE 5 7 30.33 1027 10 16 0.00 0.00
12:52 pm 12:52 Partly Cloudy 34 1.1 23 -5 64 64 W 7 11 30.28 1025 10 16 0.00 0.00
1:52 pm 13:52 Partly Cloudy 35 1.7 23 -5 61 61 SSW 8 13 30.25 1025 10 16 0.00 0.00
2:52 pm 14:52 Partly Cloudy 38 3.3 24 -4.4 57 57 NW 7 11 30.24 1024 10 16 0.00 0.00
3:52 pm 15:52 Partly Cloudy 38 3.3 24 -4.4 57 57 NW 7 11 30.24 1024 10 16 0.00 0.00
4:52 pm 16:52 Partly Cloudy 37 2.8 24 -4.4 59 59 WSW 6 9 30.23 1024 10 16 0.00 0.00
5:52 pm 17:52 Mostly Cloudy 34 1.1 24 -4.4 67 67 SSW 3 6 30.23 1024 10 16 0.00 0.00
6:52 pm 18:52 Mostly Cloudy 30 -1.1 23 -5 75 75 Calm 30.23 1024 10 16 0.00 0.00
7:52 pm 19:52 Mostly Cloudy 28 -2.2 23 -5 81 81 SSE 6 9 30.22 1023 10 16 0.00 0.00
8:52 pm 20:52 Clear 26 -3.3 22 -5.6 84 84 SE 6 9 30.21 1023 10 16 0.00 0.00
9:52 pm 21:52 Clear 25 -3.9 20 -6.7 81 81 SSE 3 6 30.21 1023 10 16 0.00 0.00
10:52 pm 22:52 Clear 23 -5 19 -7.2 85 85 SE 8 13 30.19 1022 10 16 0.00 0.00
11:52 pm 23:52 Clear 22 -5.6 19 -7.2 89 89 SE 7 11 30.19 1022 10 16 0.00 0.00

Powered by AerisWeather